Time,TemperatureF,DewpointF,PressureIn,WindDirection,WindDirectionDegrees,WindSpeedMPH,WindSpeedGustMPH,Humidity,HourlyPrecipIn,Conditions,Clouds,dailyrainin,SoftwareType,DateUTC
2013-11-15 00:00:00,38.6,20.6,30.36,NNE,22,0.0,1.0,48,0.00,,---,0.00,VWS V14.00,2013-11-15 05:00:00,
2013-11-15 00:30:00,38.1,20.6,30.33,NNE,22,0.0,0.0,49,0.00,,---,0.00,VWS V14.00,2013-11-15 05:30:00,
2013-11-15 01:00:00,37.4,20.9,30.33,NNE,22,0.0,1.0,51,0.00,,---,0.00,VWS V14.00,2013-11-15 06:00:00,
2013-11-15 01:30:00,36.7,20.8,30.33,NNE,22,0.0,1.0,52,0.00,,---,0.00,VWS V14.00,2013-11-15 06:30:00,
2013-11-15 02:00:00,36.0,21.0,30.34,NE,45,0.0,3.0,54,0.00,,---,0.00,VWS V14.00,2013-11-15 07:00:00,
2013-11-15 02:30:00,35.6,21.5,30.34,NE,45,0.0,1.0,56,0.00,,---,0.00,VWS V14.00,2013-11-15 07:30:00,
2013-11-15 03:00:00,34.9,20.8,30.33,NE,45,0.0,3.0,56,0.00,,---,0.00,VWS V14.00,2013-11-15 08:00:00,
2013-11-15 03:30:00,34.5,20.4,30.33,NE,45,0.0,3.0,56,0.00,,---,0.00,VWS V14.00,2013-11-15 08:30:00,
2013-11-15 04:00:00,35.1,20.1,30.32,NE,45,0.0,3.0,54,0.00,,---,0.00,VWS V14.00,2013-11-15 09:00:00,
2013-11-15 04:30:00,35.4,21.7,30.33,NNE,22,0.0,3.0,57,0.00,,---,0.00,VWS V14.00,2013-11-15 09:30:00,
2013-11-15 05:00:00,35.1,23.0,30.33,South,180,0.0,3.0,61,0.00,,---,0.00,VWS V14.00,2013-11-15 10:00:00,
2013-11-15 05:30:00,35.1,23.0,30.34,ENE,68,0.0,4.0,61,0.00,,---,0.00,VWS V14.00,2013-11-15 10:30:00,
2013-11-15 06:00:00,34.5,22.5,30.34,ENE,68,0.0,3.0,61,0.00,,---,0.00,VWS V14.00,2013-11-15 11:00:00,
2013-11-15 06:30:00,34.3,22.3,30.35,West,270,1.0,4.0,61,0.00,,---,0.00,VWS V14.00,2013-11-15 11:30:00,
2013-11-15 07:00:00,34.7,21.0,30.35,North,0,0.0,1.0,57,0.00,,---,0.00,VWS V14.00,2013-11-15 12:00:00,
2013-11-15 07:30:00,35.6,23.5,30.36,North,0,0.0,3.0,61,0.00,,---,0.00,VWS V14.00,2013-11-15 12:30:00,
2013-11-15 08:00:00,36.0,25.4,30.36,SSE,158,0.0,2.0,65,0.00,,---,0.00,VWS V14.00,2013-11-15 13:00:00,
2013-11-15 08:30:00,35.9,26.4,30.37,SSE,158,0.0,1.0,68,0.00,,---,0.00,VWS V14.00,2013-11-15 13:30:00,
2013-11-15 09:00:00,35.7,26.9,30.37,SSE,158,0.0,0.0,70,0.00,,---,0.00,VWS V14.00,2013-11-15 14:00:00,
2013-11-15 09:30:00,36.6,26.3,30.36,SSE,158,0.0,1.0,66,0.00,,---,0.00,VWS V14.00,2013-11-15 14:30:00,
2013-11-15 10:00:00,37.8,27.1,30.36,SSE,158,0.0,2.0,65,0.00,,---,0.00,VWS V14.00,2013-11-15 15:00:00,
2013-11-15 10:50:00,38.4,33.1,30.37,SSE,165,0.0,0.0,81,0.00,,---,0.00,VWS V14.00,2013-11-15 15:50:00,
2013-11-15 10:55:00,38.3,33.3,30.37,SSE,165,0.0,0.0,82,0.01,,---,0.01,VWS V14.00,2013-11-15 15:55:00,
2013-11-15 11:00:00,38.3,33.9,30.37,SSE,165,0.0,0.0,84,0.01,,---,0.01,VWS V14.00,2013-11-15 16:00:00,
2013-11-15 11:05:00,38.4,34.3,30.37,SSE,165,0.0,0.0,85,0.01,,---,0.01,VWS V14.00,2013-11-15 16:05:00,
2013-11-15 11:10:00,38.4,34.6,30.37,SSE,165,0.0,0.0,86,0.01,,---,0.01,VWS V14.00,2013-11-15 16:10:00,
2013-11-15 11:15:00,38.3,34.8,30.36,SSE,165,0.0,0.0,87,0.01,,---,0.01,VWS V14.00,2013-11-15 16:15:00,
2013-11-15 11:20:00,38.2,34.7,30.36,SSE,165,0.0,0.0,87,0.01,,---,0.01,VWS V14.00,2013-11-15 16:20:00,
2013-11-15 11:25:00,38.1,34.9,30.36,SSE,165,0.0,0.0,88,0.01,,---,0.01,VWS V14.00,2013-11-15 16:25:00,
2013-11-15 11:30:00,37.9,34.7,30.36,SSE,165,0.0,0.0,88,0.01,,---,0.01,VWS V14.00,2013-11-15 16:30:00,
2013-11-15 11:35:00,37.7,34.8,30.36,SSE,165,0.0,0.0,89,0.01,,---,0.01,VWS V14.00,2013-11-15 16:35:00,
2013-11-15 11:40:00,37.7,35.0,30.36,SSE,165,0.0,0.0,90,0.00,,---,0.01,VWS V14.00,2013-11-15 16:40:00,
2013-11-15 11:45:00,37.8,35.1,30.35,SSE,165,0.0,1.0,90,0.01,,---,0.02,VWS V14.00,2013-11-15 16:45:00,
2013-11-15 11:50:00,37.8,35.4,30.35,SSE,165,0.0,1.0,91,0.01,,---,0.02,VWS V14.00,2013-11-15 16:50:00,
2013-11-15 11:55:00,37.8,35.4,30.34,SSE,165,0.0,1.0,91,0.01,,---,0.02,VWS V14.00,2013-11-15 16:55:00,
2013-11-15 12:00:00,37.9,35.8,30.34,SSE,165,0.0,1.0,92,0.01,,---,0.02,VWS V14.00,2013-11-15 17:00:00,
2013-11-15 12:05:00,38.0,35.9,30.34,SSE,165,0.0,1.0,92,0.01,,---,0.02,VWS V14.00,2013-11-15 17:05:00,
2013-11-15 12:10:00,38.0,35.9,30.34,SSE,165,2.0,2.0,92,0.02,,---,0.03,VWS V14.00,2013-11-15 17:10:00,
2013-11-15 12:15:00,38.1,36.3,30.34,SSE,165,0.0,2.0,93,0.02,,---,0.03,VWS V14.00,2013-11-15 17:15:00,
2013-11-15 12:20:00,38.1,36.3,30.33,SSE,165,0.0,2.0,93,0.02,,---,0.03,VWS V14.00,2013-11-15 17:20:00,
2013-11-15 12:25:00,38.3,36.5,30.33,SSE,165,0.0,2.0,93,0.02,,---,0.03,VWS V14.00,2013-11-15 17:25:00,
2013-11-15 12:30:00,38.6,37.0,30.32,SSE,165,0.0,2.0,94,0.02,,---,0.03,VWS V14.00,2013-11-15 17:30:00,
2013-11-15 12:35:00,38.7,37.1,30.32,SSE,165,0.0,2.0,94,0.02,,---,0.03,VWS V14.00,2013-11-15 17:35:00,
2013-11-15 12:40:00,38.5,36.7,30.32,SSE,165,0.0,0.0,93,0.02,,---,0.03,VWS V14.00,2013-11-15 17:40:00,
2013-11-15 12:45:00,38.3,36.5,30.32,SSE,165,0.0,0.0,93,0.02,,---,0.03,VWS V14.00,2013-11-15 17:45:00,
2013-11-15 12:50:00,38.2,36.4,30.32,SSE,165,0.0,0.0,93,0.02,,---,0.03,VWS V14.00,2013-11-15 17:50:00,
2013-11-15 12:55:00,38.1,36.3,30.31,SSE,165,0.0,0.0,93,0.02,,---,0.03,VWS V14.00,2013-11-15 17:55:00,
2013-11-15 13:00:00,38.1,36.5,30.31,SSE,165,0.0,0.0,94,0.02,,---,0.03,VWS V14.00,2013-11-15 18:00:00,
2013-11-15 13:05:00,38.1,36.5,30.31,SSE,165,0.0,0.0,94,0.02,,---,0.03,VWS V14.00,2013-11-15 18:05:00,
2013-11-15 13:10:00,38.0,36.4,30.31,SSE,165,0.0,0.0,94,0.00,,---,0.03,VWS V14.00,2013-11-15 18:10:00,
2013-11-15 13:15:00,38.0,36.4,30.30,SSE,165,0.0,0.0,94,0.00,,---,0.03,VWS V14.00,2013-11-15 18:15:00,
2013-11-15 13:20:00,38.0,36.4,30.31,SSE,165,0.0,0.0,94,0.00,,---,0.03,VWS V14.00,2013-11-15 18:20:00,
2013-11-15 13:25:00,38.1,36.5,30.30,SSE,165,0.0,0.0,94,0.00,,---,0.03,VWS V14.00,2013-11-15 18:25:00,
2013-11-15 13:30:00,38.2,36.6,30.30,SSE,165,0.0,0.0,94,0.00,,---,0.03,VWS V14.00,2013-11-15 18:30:00,
2013-11-15 13:35:00,38.3,37.0,30.30,SSE,165,0.0,0.0,95,0.00,,---,0.03,VWS V14.00,2013-11-15 18:35:00,
2013-11-15 13:40:00,38.3,37.0,30.30,SSE,165,0.0,1.0,95,0.00,,---,0.03,VWS V14.00,2013-11-15 18:40:00,
2013-11-15 13:45:00,38.3,37.0,30.30,SSE,165,0.0,1.0,95,0.00,,---,0.03,VWS V14.00,2013-11-15 18:45:00,
2013-11-15 13:50:00,38.4,37.1,30.30,SSE,165,0.0,1.0,95,0.00,,---,0.03,VWS V14.00,2013-11-15 18:50:00,
2013-11-15 13:55:00,38.5,37.2,30.30,SSE,165,0.0,1.0,95,0.01,,---,0.04,VWS V14.00,2013-11-15 18:55:00,
2013-11-15 14:00:00,38.7,37.4,30.29,SSE,165,0.0,1.0,95,0.01,,---,0.04,VWS V14.00,2013-11-15 19:00:00,
2013-11-15 14:05:00,38.7,37.4,30.29,SSE,165,0.0,1.0,95,0.01,,---,0.04,VWS V14.00,2013-11-15 19:05:00,
2013-11-15 14:10:00,38.7,37.4,30.30,SSE,165,0.0,0.0,95,0.01,,---,0.04,VWS V14.00,2013-11-15 19:10:00,
2013-11-15 14:15:00,38.7,37.4,30.29,SSE,165,0.0,0.0,95,0.01,,---,0.04,VWS V14.00,2013-11-15 19:15:00,
2013-11-15 14:20:00,38.6,37.3,30.29,SSE,165,0.0,0.0,95,0.02,,---,0.05,VWS V14.00,2013-11-15 19:20:00,
2013-11-15 14:25:00,38.6,37.3,30.28,SSE,165,0.0,1.0,95,0.02,,---,0.05,VWS V14.00,2013-11-15 19:25:00,
2013-11-15 14:30:00,38.6,37.3,30.28,SSE,165,0.0,1.0,95,0.02,,---,0.05,VWS V14.00,2013-11-15 19:30:00,
2013-11-15 14:35:00,38.6,37.3,30.28,SSE,165,0.0,1.0,95,0.02,,---,0.05,VWS V14.00,2013-11-15 19:35:00,
2013-11-15 14:40:00,38.6,37.3,30.28,SSE,165,0.0,0.0,95,0.02,,---,0.05,VWS V14.00,2013-11-15 19:40:00,
2013-11-15 14:45:00,38.8,37.8,30.27,SSE,165,0.0,0.0,96,0.02,,---,0.05,VWS V14.00,2013-11-15 19:45:00,
2013-11-15 14:50:00,39.0,38.0,30.27,SSE,165,0.0,0.0,96,0.02,,---,0.05,VWS V14.00,2013-11-15 19:50:00,
2013-11-15 14:55:00,39.3,38.3,30.26,SSE,165,0.0,0.0,96,0.02,,---,0.05,VWS V14.00,2013-11-15 19:55:00,
2013-11-15 15:00:00,39.4,38.4,30.26,SSE,165,0.0,0.0,96,0.02,,---,0.05,VWS V14.00,2013-11-15 20:00:00,
2013-11-15 15:05:00,39.5,38.5,30.26,SSE,165,0.0,0.0,96,0.02,,---,0.05,VWS V14.00,2013-11-15 20:05:00,
2013-11-15 15:10:00,39.6,38.6,30.26,NE,46,0.0,2.0,96,0.01,,---,0.05,VWS V14.00,2013-11-15 20:10:00,
2013-11-15 15:15:00,39.7,38.7,30.25,NE,46,0.0,2.0,96,0.01,,---,0.05,VWS V14.00,2013-11-15 20:15:00,
2013-11-15 15:20:00,39.7,38.7,30.26,NE,45,0.0,2.0,96,0.01,,---,0.05,VWS V14.00,2013-11-15 20:20:00,
2013-11-15 15:25:00,39.7,38.7,30.26,NE,46,0.0,2.0,96,0.01,,---,0.05,VWS V14.00,2013-11-15 20:25:00,
2013-11-15 15:30:00,39.5,38.5,30.25,NNE,26,1.0,3.0,96,0.01,,---,0.05,VWS V14.00,2013-11-15 20:30:00,
2013-11-15 15:35:00,40.0,39.0,30.25,East,98,0.0,4.0,96,0.01,,---,0.05,VWS V14.00,2013-11-15 20:35:00,
2013-11-15 15:40:00,40.1,39.0,30.26,East,98,0.0,0.0,96,0.00,,---,0.05,VWS V14.00,2013-11-15 20:40:00,
2013-11-15 15:45:00,39.9,38.8,30.26,East,98,0.0,0.0,96,0.00,,---,0.05,VWS V14.00,2013-11-15 20:45:00,
2013-11-15 15:50:00,39.7,38.7,30.27,East,98,0.0,0.0,96,0.00,,---,0.05,VWS V14.00,2013-11-15 20:50:00,
2013-11-15 15:55:00,39.6,38.6,30.27,East,98,0.0,0.0,96,0.00,,---,0.05,VWS V14.00,2013-11-15 20:55:00,
2013-11-15 16:00:00,39.5,38.5,30.27,East,98,0.0,0.0,96,0.00,,---,0.05,VWS V14.00,2013-11-15 21:00:00,
2013-11-15 16:05:00,39.5,38.5,30.27,East,98,0.0,2.0,96,0.01,,---,0.06,VWS V14.00,2013-11-15 21:05:00,
2013-11-15 16:10:00,39.5,38.5,30.28,East,98,0.0,0.0,96,0.01,,---,0.06,VWS V14.00,2013-11-15 21:10:00,
2013-11-15 16:15:00,39.6,38.6,30.27,East,98,0.0,0.0,96,0.02,,---,0.07,VWS V14.00,2013-11-15 21:15:00,
2013-11-15 16:20:00,39.6,38.6,30.28,East,98,0.0,0.0,96,0.02,,---,0.07,VWS V14.00,2013-11-15 21:20:00,
2013-11-15 16:25:00,39.7,38.7,30.28,East,98,0.0,0.0,96,0.02,,---,0.07,VWS V14.00,2013-11-15 21:25:00,
2013-11-15 16:30:00,39.8,38.8,30.28,East,98,0.0,0.0,96,0.03,,---,0.08,VWS V14.00,2013-11-15 21:30:00,
2013-11-15 16:35:00,39.9,38.8,30.27,East,98,0.0,1.0,96,0.04,,---,0.09,VWS V14.00,2013-11-15 21:35:00,
2013-11-15 16:40:00,40.2,39.2,30.27,East,98,0.0,0.0,96,0.04,,---,0.09,VWS V14.00,2013-11-15 21:40:00,
2013-11-15 16:45:00,40.5,39.7,30.27,East,98,0.0,0.0,97,0.04,,---,0.09,VWS V14.00,2013-11-15 21:45:00,
2013-11-15 16:50:00,40.8,40.0,30.26,East,98,0.0,0.0,97,0.04,,---,0.09,VWS V14.00,2013-11-15 21:50:00,
2013-11-15 16:55:00,41.0,40.2,30.26,East,98,0.0,0.0,97,0.04,,---,0.09,VWS V14.00,2013-11-15 21:55:00,
2013-11-15 17:00:00,41.1,40.3,30.26,East,98,0.0,0.0,97,0.04,,---,0.09,VWS V14.00,2013-11-15 22:00:00,
2013-11-15 17:05:00,41.2,40.4,30.26,East,98,0.0,0.0,97,0.04,,---,0.09,VWS V14.00,2013-11-15 22:05:00,
2013-11-15 17:10:00,41.2,40.4,30.26,East,98,0.0,0.0,97,0.03,,---,0.09,VWS V14.00,2013-11-15 22:10:00,
2013-11-15 17:15:00,41.1,40.3,30.27,East,98,0.0,0.0,97,0.03,,---,0.09,VWS V14.00,2013-11-15 22:15:00,
2013-11-15 17:20:00,41.0,40.2,30.27,East,98,0.0,0.0,97,0.03,,---,0.09,VWS V14.00,2013-11-15 22:20:00,
2013-11-15 17:25:00,40.9,39.8,30.27,East,98,0.0,0.0,96,0.03,,---,0.09,VWS V14.00,2013-11-15 22:25:00,
2013-11-15 17:30:00,40.8,39.8,30.27,East,98,0.0,0.0,96,0.03,,---,0.09,VWS V14.00,2013-11-15 22:30:00,
2013-11-15 17:35:00,40.8,39.8,30.27,East,98,0.0,0.0,96,0.03,,---,0.09,VWS V14.00,2013-11-15 22:35:00,
2013-11-15 17:40:00,40.7,39.7,30.26,East,98,0.0,0.0,96,0.01,,---,0.10,VWS V14.00,2013-11-15 22:40:00,
2013-11-15 17:45:00,40.6,39.5,30.26,East,98,0.0,0.0,96,0.01,,---,0.10,VWS V14.00,2013-11-15 22:45:00,
2013-11-15 17:50:00,40.5,39.5,30.26,East,98,0.0,0.0,96,0.01,,---,0.10,VWS V14.00,2013-11-15 22:50:00,
2013-11-15 17:55:00,40.5,39.7,30.26,East,98,0.0,0.0,97,0.02,,---,0.11,VWS V14.00,2013-11-15 22:55:00,
2013-11-15 18:00:00,40.6,39.8,30.26,East,98,0.0,0.0,97,0.02,,---,0.11,VWS V14.00,2013-11-15 23:00:00,
2013-11-15 18:05:00,40.7,39.9,30.27,East,98,0.0,0.0,97,0.02,,---,0.11,VWS V14.00,2013-11-15 23:05:00,
2013-11-15 18:10:00,40.7,39.9,30.26,East,98,0.0,0.0,97,0.03,,---,0.12,VWS V14.00,2013-11-15 23:10:00,
2013-11-15 18:15:00,40.6,39.8,30.26,East,98,0.0,0.0,97,0.03,,---,0.12,VWS V14.00,2013-11-15 23:15:00,
2013-11-15 18:20:00,40.5,39.7,30.26,East,98,0.0,0.0,97,0.03,,---,0.12,VWS V14.00,2013-11-15 23:20:00,
2013-11-15 18:25:00,40.5,39.7,30.26,East,98,0.0,0.0,97,0.04,,---,0.13,VWS V14.00,2013-11-15 23:25:00,
2013-11-15 18:30:00,40.5,39.5,30.26,East,98,0.0,1.0,96,0.05,,---,0.14,VWS V14.00,2013-11-15 23:30:00,
2013-11-15 18:35:00,40.5,39.7,30.26,East,98,0.0,3.0,97,0.05,,---,0.14,VWS V14.00,2013-11-15 23:35:00,
2013-11-15 18:40:00,40.5,39.7,30.27,SE,144,0.0,0.0,97,0.06,,---,0.15,VWS V14.00,2013-11-15 23:40:00,
2013-11-15 18:45:00,40.6,39.8,30.27,SE,144,0.0,0.0,97,0.07,,---,0.16,VWS V14.00,2013-11-15 23:45:00,
2013-11-15 18:50:00,40.5,39.7,30.27,SE,144,0.0,0.0,97,0.08,,---,0.17,VWS V14.00,2013-11-15 23:50:00,
2013-11-15 18:55:00,40.5,39.7,30.27,SE,144,0.0,0.0,97,0.09,,---,0.18,VWS V14.00,2013-11-15 23:55:00,
2013-11-15 19:00:00,40.5,39.7,30.27,SE,144,0.0,0.0,97,0.10,,---,0.19,VWS V14.00,2013-11-16 00:00:00,
2013-11-15 19:05:00,40.6,39.8,30.26,SE,144,0.0,2.0,97,0.11,,---,0.20,VWS V14.00,2013-11-16 00:05:00,
2013-11-15 19:10:00,40.6,39.8,30.24,SE,144,0.0,0.0,97,0.11,,---,0.22,VWS V14.00,2013-11-16 00:10:00,
2013-11-15 19:15:00,40.7,39.9,30.24,ESE,105,0.0,4.0,97,0.11,,---,0.22,VWS V14.00,2013-11-16 00:15:00,
2013-11-15 19:20:00,41.1,40.3,30.24,NE,53,3.0,4.0,97,0.11,,---,0.22,VWS V14.00,2013-11-16 00:20:00,
2013-11-15 19:25:00,41.6,40.8,30.23,NE,49,1.0,10.0,97,0.11,,---,0.22,VWS V14.00,2013-11-16 00:25:00,
2013-11-15 19:30:00,42.0,41.2,30.25,NNE,24,0.0,10.0,97,0.12,,---,0.23,VWS V14.00,2013-11-16 00:30:00,
2013-11-15 19:35:00,41.9,41.1,30.26,South,170,0.0,10.0,97,0.12,,---,0.23,VWS V14.00,2013-11-16 00:35:00,
2013-11-15 19:40:00,41.5,40.7,30.26,NW,309,0.0,3.0,97,0.08,,---,0.23,VWS V14.00,2013-11-16 00:40:00,
2013-11-15 19:45:00,41.1,40.3,30.26,NW,309,0.0,3.0,97,0.08,,---,0.23,VWS V14.00,2013-11-16 00:45:00,
2013-11-15 19:50:00,40.8,40.0,30.27,South,189,0.0,4.0,97,0.08,,---,0.23,VWS V14.00,2013-11-16 00:50:00,
2013-11-15 19:55:00,40.6,39.8,30.27,South,189,0.0,4.0,97,0.08,,---,0.23,VWS V14.00,2013-11-16 00:55:00,
2013-11-15 20:00:00,40.4,39.6,30.27,South,189,0.0,4.0,97,0.08,,---,0.23,VWS V14.00,2013-11-16 01:00:00,
2013-11-15 20:05:00,40.3,39.5,30.27,South,188,0.0,4.0,97,0.08,,---,0.23,VWS V14.00,2013-11-16 01:05:00,
2013-11-15 20:10:00,40.2,39.4,30.27,South,189,0.0,0.0,97,0.02,,---,0.23,VWS V14.00,2013-11-16 01:10:00,
2013-11-15 20:15:00,40.3,39.5,30.27,South,189,0.0,2.0,97,0.02,,---,0.23,VWS V14.00,2013-11-16 01:15:00,
2013-11-15 20:20:00,40.4,39.6,30.27,South,188,0.0,2.0,97,0.02,,---,0.23,VWS V14.00,2013-11-16 01:20:00,
2013-11-15 20:25:00,40.6,39.8,30.27,South,189,0.0,3.0,97,0.02,,---,0.23,VWS V14.00,2013-11-16 01:25:00,
2013-11-15 20:30:00,40.8,40.0,30.27,West,265,0.0,3.0,97,0.02,,---,0.23,VWS V14.00,2013-11-16 01:30:00,
2013-11-15 20:35:00,41.1,40.3,30.27,West,265,0.0,3.0,97,0.02,,---,0.23,VWS V14.00,2013-11-16 01:35:00,
2013-11-15 20:40:00,41.5,41.0,30.26,West,265,0.0,0.0,98,0.00,,---,0.23,VWS V14.00,2013-11-16 01:40:00,
2013-11-15 20:45:00,41.7,41.2,30.26,West,265,0.0,0.0,98,0.00,,---,0.23,VWS V14.00,2013-11-16 01:45:00,
2013-11-15 20:50:00,41.9,41.1,30.27,West,265,0.0,0.0,97,0.00,,---,0.23,VWS V14.00,2013-11-16 01:50:00,
2013-11-15 20:55:00,42.0,41.2,30.27,West,265,0.0,0.0,97,0.00,,---,0.23,VWS V14.00,2013-11-16 01:55:00,
2013-11-15 21:00:00,42.1,41.6,30.27,West,264,0.0,0.0,98,0.00,,---,0.23,VWS V14.00,2013-11-16 02:00:00,
2013-11-15 21:05:00,42.2,41.7,30.28,West,265,0.0,0.0,98,0.00,,---,0.23,VWS V14.00,2013-11-16 02:05:00,
2013-11-15 21:10:00,42.4,41.9,30.27,West,265,0.0,0.0,98,0.00,,---,0.23,VWS V14.00,2013-11-16 02:10:00,
2013-11-15 21:15:00,42.4,41.6,30.27,West,265,0.0,0.0,97,0.00,,---,0.23,VWS V14.00,2013-11-16 02:15:00,
2013-11-15 21:20:00,42.5,41.7,30.27,West,265,0.0,0.0,97,0.00,,---,0.23,VWS V14.00,2013-11-16 02:20:00,
2013-11-15 21:25:00,42.6,41.8,30.27,West,265,0.0,0.0,97,0.00,,---,0.23,VWS V14.00,2013-11-16 02:25:00,
2013-11-15 21:30:00,42.7,41.9,30.27,West,264,0.0,0.0,97,0.00,,---,0.23,VWS V14.00,2013-11-16 02:30:00,
2013-11-15 21:35:00,42.9,42.4,30.27,West,264,0.0,0.0,98,0.00,,---,0.23,VWS V14.00,2013-11-16 02:35:00,
2013-11-15 21:40:00,43.2,42.7,30.27,West,265,0.0,0.0,98,0.00,,---,0.23,VWS V14.00,2013-11-16 02:40:00,
2013-11-15 21:45:00,43.3,42.8,30.27,West,264,0.0,0.0,98,0.00,,---,0.23,VWS V14.00,2013-11-16 02:45:00,
2013-11-15 21:50:00,43.4,42.9,30.27,West,265,0.0,0.0,98,0.00,,---,0.23,VWS V14.00,2013-11-16 02:50:00,
2013-11-15 21:55:00,43.4,42.9,30.27,West,265,0.0,0.0,98,0.00,,---,0.23,VWS V14.00,2013-11-16 02:55:00,
2013-11-15 22:00:00,43.4,42.9,30.26,West,264,0.0,0.0,98,0.00,,---,0.23,VWS V14.00,2013-11-16 03:00:00,
2013-11-15 22:05:00,43.4,42.9,30.26,West,264,0.0,2.0,98,0.00,,---,0.23,VWS V14.00,2013-11-16 03:05:00,
2013-11-15 22:10:00,43.3,42.8,30.26,West,265,0.0,0.0,98,0.00,,---,0.23,VWS V14.00,2013-11-16 03:10:00,
2013-11-15 22:15:00,43.3,42.8,30.26,West,265,0.0,0.0,98,0.00,,---,0.23,VWS V14.00,2013-11-16 03:15:00,
2013-11-15 22:20:00,43.3,42.8,30.26,West,264,0.0,0.0,98,0.00,,---,0.23,VWS V14.00,2013-11-16 03:20:00,
2013-11-15 22:25:00,43.4,42.9,30.26,West,265,0.0,1.0,98,0.00,,---,0.23,VWS V14.00,2013-11-16 03:25:00,
2013-11-15 22:30:00,43.5,43.0,30.27,West,265,0.0,1.0,98,0.00,,---,0.23,VWS V14.00,2013-11-16 03:30:00,
2013-11-15 22:35:00,43.6,43.1,30.27,West,265,0.0,1.0,98,0.00,,---,0.23,VWS V14.00,2013-11-16 03:35:00,
2013-11-15 22:40:00,43.6,43.1,30.27,West,264,0.0,0.0,98,0.00,,---,0.23,VWS V14.00,2013-11-16 03:40:00,
2013-11-15 22:45:00,43.7,43.2,30.26,West,264,0.0,0.0,98,0.00,,---,0.23,VWS V14.00,2013-11-16 03:45:00,
2013-11-15 22:50:00,44.0,43.5,30.26,West,265,0.0,0.0,98,0.00,,---,0.23,VWS V14.00,2013-11-16 03:50:00,
2013-11-15 22:55:00,44.2,43.7,30.26,West,265,0.0,0.0,98,0.00,,---,0.23,VWS V14.00,2013-11-16 03:55:00,
2013-11-15 23:00:00,44.4,43.9,30.26,West,265,0.0,0.0,98,0.00,,---,0.23,VWS V14.00,2013-11-16 04:00:00,
2013-11-15 23:05:00,44.5,44.0,30.26,West,264,0.0,0.0,98,0.00,,---,0.23,VWS V14.00,2013-11-16 04:05:00,
2013-11-15 23:10:00,44.5,44.0,30.25,West,265,0.0,1.0,98,0.00,,---,0.23,VWS V14.00,2013-11-16 04:10:00,
2013-11-15 23:15:00,44.5,44.0,30.25,West,265,0.0,1.0,98,0.00,,---,0.23,VWS V14.00,2013-11-16 04:15:00,
2013-11-15 23:20:00,44.5,44.0,30.26,West,265,0.0,1.0,98,0.00,,---,0.23,VWS V14.00,2013-11-16 04:20:00,
2013-11-15 23:25:00,44.6,44.1,30.26,West,265,0.0,1.0,98,0.00,,---,0.23,VWS V14.00,2013-11-16 04:25:00,
2013-11-15 23:30:00,44.6,44.1,30.26,West,265,0.0,1.0,98,0.00,,---,0.23,VWS V14.00,2013-11-16 04:30:00,
2013-11-15 23:35:00,44.7,44.2,30.26,West,265,0.0,1.0,98,0.00,,---,0.23,VWS V14.00,2013-11-16 04:35:00,
2013-11-15 23:40:00,44.8,44.3,30.25,NW,307,0.0,2.0,98,0.00,,---,0.23,VWS V14.00,2013-11-16 04:40:00,
2013-11-15 23:45:00,45.0,44.5,30.25,NW,307,0.0,2.0,98,0.00,,---,0.23,VWS V14.00,2013-11-16 04:45:00,
2013-11-15 23:50:00,45.0,44.5,30.25,NW,307,0.0,2.0,98,0.00,,---,0.23,VWS V14.00,2013-11-16 04:50:00,
2013-11-15 23:55:00,45.0,44.5,30.25,NW,307,0.0,2.0,98,0.00,,---,0.23,VWS V14.00,2013-11-16 04:55:00,